Weather History for White Rock, BC

Change the Weather History Date:

Wednesday, November 7, 2012

  Actual Average Record
Temperature  
Mean Temperature 48 °F -  
Max Temperature 53 °F - - ()
Min Temperature 41 °F - - ()
Degree Days  
Heating Degree Days 18    
Moisture  
Dew Point 41 °F    
Average Humidity 73    
Maximum Humidity 83    
Minimum Humidity 57    
Precipitation  
Precipitation 0.00 in - - ()
Sea Level Pressure  
Sea Level Pressure 30.08 in    
Wind  
Wind Speed 2 mph ()    
Max Wind Speed 5 mph    
Max Gust Speed -    
T = Trace of Precipitation, MM = Missing Value Source: Averaged Metar Reports

Daily Weather History Graph

Daily Weather History Graph

Search for Another Location

Airport:

Trip Planner

Search our weather history database for the weather conditions in past years. The results will help you decide how hot, cold, wet, or windy it might be!

Date:

Astronomy

Nov. 07, 2012 Rise Set
Actual Time 7:09 AM PST 4:40 PM PST
Civil Twilight 6:35 AM PST 5:13 PM PST
Nautical Twilight 5:57 AM PST 5:51 PM PST
Astronomical Twilight 5:20 AM PST 6:28 PM PST
Moon No Moon Rise 1:23 PM PST (11/7)
Length of Visible Light 10h 38m
Length of Day
9h 31m
Last Quarter, 42% of the Moon is Illuminated
Nov 7
Last Quarter
Nov 13
New
Nov 20
First Quarter
Nov 28
Full
Dec 6
Last Quarter

Hourly Weather History & Observations

Time (PST) Temp. Windchill Dew Point Humidity Pressure Visibility Wind Dir Wind Speed Gust Speed Precip Events Conditions
12:00 AM 50.7 °F - 44.6 °F 80% 29.99 in - SW 4.6 mph - N/A   Unknown
1:00 AM 50.2 °F - 43.7 °F 78% 30.01 in - WSW 3.5 mph - N/A   Unknown
2:00 AM 48.9 °F - 42.8 °F 79% 30.03 in - WSW 1.2 mph - N/A   Unknown
3:00 AM 48.6 °F - 43.3 °F 82% 30.04 in - WSW 2.3 mph - N/A   Unknown
4:00 AM 49 °F - 42 °F 69% 30.06 in - West 1.2 mph - -  
4:00 AM 48.6 °F - 41.9 °F 78% 30.06 in - West 1.2 mph - N/A   Unknown
5:00 AM 47.8 °F - 41.5 °F 79% 30.07 in - WNW 1.2 mph - N/A   Unknown
6:00 AM 48.0 °F - 40.3 °F 75% 30.09 in - West 2.3 mph - N/A   Unknown
7:00 AM 46.9 °F - 40.8 °F 79% 30.10 in - Calm Calm - N/A   Unknown
9:00 AM 48.9 °F - 40.6 °F 73% 30.12 in - SW 2.3 mph - N/A   Unknown
10:00 AM 51 °F - 40 °F 57% 30.14 in - SSW 3.5 mph - -  
10:00 AM 51.3 °F - 40.5 °F 67% 30.14 in - SSW 3.5 mph - N/A   Unknown
11:00 AM 51.6 °F - 39.9 °F 64% 30.14 in - SSW 3.5 mph - N/A   Unknown
12:00 PM 51.4 °F - 40.5 °F 66% 30.12 in - SSW 3.5 mph - N/A   Unknown
1:00 PM 51.4 °F - 40.3 °F 66% 30.12 in - SSW 3.5 mph - N/A   Unknown
2:00 PM 52.9 °F - 40.8 °F 64% 30.11 in - SSW 2.3 mph - N/A   Unknown
3:00 PM 52.3 °F - 39.4 °F 61% 30.10 in - South 2.3 mph - N/A   Unknown
4:00 PM 50 °F - 40 °F 60% 30.10 in - South 3.5 mph - -  
4:00 PM 50.0 °F - 40.5 °F 70% 30.10 in - South 3.5 mph - N/A   Unknown
5:00 PM 47.3 °F - 40.3 °F 77% 30.09 in - East 1.2 mph - N/A   Unknown
6:00 PM 45.5 °F - 39.6 °F 80% 30.08 in - NE 1.2 mph - N/A   Unknown
7:00 PM 45.0 °F 43.5 °F 39.4 °F 81% 30.07 in - NNE 3.5 mph - N/A   Unknown
8:00 PM 43.9 °F 42.3 °F 38.8 °F 82% 30.06 in - NNE 3.5 mph - N/A   Unknown
9:00 PM 44.1 °F 42.5 °F 38.7 °F 81% 30.05 in - NE 3.5 mph - N/A   Unknown
10:00 PM 42 °F - 37 °F 77% 30.04 in - NE 3.5 mph - -  
11:00 PM 41.5 °F - 36.9 °F 83% 30.02 in - NE 2.3 mph - N/A   Unknown